Flag for U.S.A. Weather past 2 weeks in Pittsburgh, Pennsylvania, U.S.A.

Now
66 °F

Sunny.


Feels Like: 66 °F
Forecast: 61 / 81 °F
Wind: 3 mph from Northwest

Location: Allegheny County Airport

Current Time: Aug 5, 2015 at 8:41:43 AM

Latest Report: Aug 5, 2015 at 7:53 AM


Visibility: 10 mi

Pressure: 30.01 "Hg

Humidity: 68%

Dew point: 55 °F

Location of PittsburghLocation

Historic Weather in Pittsburgh — Graph

°F

Pittsburgh temperature yesterday

Maximum temperature yesterday: 80 °F (at 2:53 PM)
Minimum temperature yesterday: 63 °F (at 4:53 AM)
Average temperature yesterday: 72 °F

Past Weeks' High & Low Weather Summary

 TemperatureHumidityPressure
High90 °F (Jul 29, 4:53 PM)87% (Jul 21, 6:53 AM)30.04 "Hg (Jul 21, 6:53 AM)
Low60 °F (Jul 22, 4:53 AM)28% (Jul 30, 12:53 PM)29.72 "Hg (Jul 21, 6:53 AM)
Average74 °F55%29.94 "Hg
* Reported Jul 21 6:53 AM — Aug 5 6:53 AM, Pittsburgh, Weather by CustomWeather, © 2015

Note: Actual official high and low records may vary slightly from our data, if they occured in-between our weather recording intervals... More about our weather records

Advertising

Pittsburgh weather history for previous 24 hours

 ConditionsComfort  
Time TempWeatherWind HumidityBarometerVisibility
6:53 AM
Wed, Aug 5
64 °FClear.5 mph68%30.00 "Hg10 mi
5:53 AM64 °FClear.7 mph68%29.98 "Hg10 mi
4:53 AM64 °FClear.5 mph68%29.98 "Hg10 mi
3:53 AM66 °FClear.6 mph63%29.97 "Hg10 mi
2:53 AM67 °FClear.6 mph59%29.98 "Hg10 mi
1:53 AM68 °FClear.6 mph57%29.98 "Hg10 mi
12:53 AM69 °FClear.6 mph55%29.99 "Hg10 mi
11:53 PM
Tue, Aug 4
71 °FClear.5 mph49%29.98 "Hg10 mi
10:53 PM72 °FClear.5 mph48%29.98 "Hg10 mi
9:53 PM74 °FClear.5 mph43%29.97 "Hg10 mi
8:53 PM74 °FPassing clouds.6 mph41%29.96 "Hg10 mi
7:53 PM76 °FSunny.7 mph40%29.94 "Hg10 mi
6:53 PM77 °FSunny.7 mph37%29.93 "Hg10 mi
5:53 PM80 °FScattered clouds.8 mph34%29.94 "Hg10 mi
4:53 PM79 °FPassing clouds.8 mph35%29.94 "Hg10 mi
3:53 PM78 °FScattered clouds.10 mph37%29.95 "Hg10 mi
2:53 PM80 °FPassing clouds.12 mph35%29.96 "Hg10 mi
1:53 PM78 °FSunny.8 mph37%29.96 "Hg10 mi
12:53 PM76 °FSunny.3 mph39%29.97 "Hg10 mi
11:53 AM74 °FSunny.N/A45%29.98 "Hg10 mi
10:53 AM71 °FSunny.7 mph49%29.98 "Hg10 mi
9:53 AM70 °FSunny.7 mph59%29.98 "Hg10 mi
8:53 AM67 °FSunny.8 mph66%29.97 "Hg10 mi
Weather by CustomWeather, © 2015

See weather overviewHow to use our weather pages